Location: *
(57.8420°S, 159.8600°W)
Time: 04:33:14
(UTC+00:00)

CZ-4B R/B - Pass Details

Date: 18 May 2021
Orbit: 489 x 647 km, 97.9° (Epoch: 20 June)

Event Time Altitude Azimuth Distance (km) Brightness Sun altitude
Exits shadow 05:18:11 - 170° (S) 2,424 6.0 -22.1°
Reaches altitude 10° 05:19:04 10° 173° (S) 2,080 5.7 -22.2°
Maximum altitude 05:23:23 45° 244° (WSW) 884 4.2 -22.8°
Drops below altitude 10° 05:27:33 10° 316° (NW) 1,993 6.2 -23.3°
Sets 05:29:44 0° 322° (NW) 2,867 7.0 -23.6°
